[[{"header":{"parameterUnit":"m.s-1","parameterCategory":1,"la1":30.2991,"la2":30.254,"lo1":-89.0895,"lo2":-89.0444,"dy":0.0017,"dx":0.0017,"nx":28,"ny":28,"refTime":"2024-09-28T09:00:00:Z","depth":0,"parameterNumber":2,"parameterNumberName":"U-component_of_WINDS"},"data":[0,0,0,0,0,0,0,0,0,0,0,0,0,0,0,0,0,0,0,0,0,0,0,0,0,0,0,0,0,0,0,0,0,0,0,0,0,0,0,0,0,0,0,0,0,0,0,0,0,0,0,0,0,0,0,0,0,0,2.6012,2.6013,0,2.6074,2.6075,2.6075,2.6056,2.6055,2.6053,2.6052,2.6117,2.612,2.6123,0,0,0,0,0,0,0,0,0,0,0,0,0,2.588,2.5883,2.6012,2.6013,2.6014,2.6074,2.6075,2.6076,2.6056,2.6054,2.6053,2.6051,2.6116,2.612,2.6124,0,0,0,0,0,0,0,0,0,0,0,0,0,2.594,2.5884,2.6012,2.6011,2.6012,2.6074,2.6075,2.6076,2.6056,2.6054,2.6052,2.6051,2.6115,2.612,2.6124,2.6191,0,0,2.6138,2.614,0,0,0,0,0,0,0,0,2.5936,2.5944,2.6011,2.6011,2.6012,2.6055,2.6052,2.6115,2.6057,2.604,2.6052,2.605,2.6099,2.6104,2.612,2.6194,2.6197,2.6138,2.6141,2.6143,2.6144,0,0,0,0,0,0,0,2.5932,2.5942,2.6037,2.6012,2.6013,2.6009,2.6015,2.6064,2.608,2.6041,2.604,2.6047,2.6099,2.6116,2.6122,2.6198,2.6138,2.6142,2.6145,2.6146,2.6332,2.6335,0,0,0,0,0,0,2.5927,2.5938,2.6035,2.6039,2.5968,2.6013,2.602,2.6043,2.6079,2.6082,2.6049,2.6046,2.6109,2.6116,2.6124,2.6206,2.6143,2.6147,2.6149,2.633,2.6333,2.6335,0,0,0,0,0,0,2.5924,2.5936,2.6032,2.5988,2.6,2.6017,2.6044,2.6046,2.6063,2.6085,2.6088,2.6063,2.6108,2.6118,2.6175,2.6208,2.6149,2.6153,2.6328,2.6331,2.6334,2.637,0,0,0,0,0,0,2.5921,2.5935,2.596,2.5989,2.6003,2.6082,2.6046,2.6048,2.6071,2.6067,2.6099,2.6103,2.6107,2.6168,2.6179,2.6213,2.6156,2.6325,2.6329,2.6333,2.6366,2.6374,2.6381,0,0,0,0,0,2.5916,2.5968,2.5961,2.5973,2.6034,2.6083,2.6091,2.6095,2.6073,2.6099,2.6113,2.6102,2.6202,2.6174,2.6187,2.6222,2.6323,2.6328,2.6333,2.6363,2.6373,2.6381,0,0,0,0,0,0,2.5943,2.5972,2.5965,2.6027,2.6053,2.608,2.6112,2.6105,2.6138,2.6134,2.6137,2.6145,2.6204,2.6219,2.6187,2.629,2.626,2.6267,2.6278,2.6288,2.6295,2.6291,2.616,0,0,0,0,0,2.5956,2.5993,2.6016,2.6069,2.6082,2.6095,2.6117,2.6117,2.6145,2.6156,2.6174,2.6201,2.6239,2.6264,2.63,2.6368,2.6376,2.6399,2.6406,2.6412,2.6419,2.6458,2.6468,2.6352,2.6352,2.6352,0,0,2.5983,2.6004,2.6027,2.6075,2.6095,2.6134,2.6105,2.6147,2.6177,2.6162,2.6217,2.6232,2.6263,2.6326,2.6355,2.6341,2.6453,2.6419,2.6424,2.6427,2.6464,2.6475,2.6485,2.6356,2.6355,2.6354,0,0,2.6054,2.6072,2.6119,2.614,2.617,2.6179,2.619,2.6219,2.6228,2.6283,2.6274,2.6309,2.6374,2.6397,2.6417,2.6498,2.6489,2.651,2.655,2.6587,2.6596,2.6604,2.6634,2.6645,2.6516,2.6516,2.6517,0,2.6084,2.6142,2.6144,2.6188,2.621,2.6198,2.6246,2.6267,2.6308,2.6324,2.6307,2.6389,2.6409,2.6478,2.6498,2.6514,2.6528,2.6506,2.6595,2.6603,2.661,2.6639,2.665,2.6519,2.6519,2.6518,2.6518,0,2.6179,2.6219,2.6253,2.6293,2.6319,2.6365,2.6375,2.6401,2.6399,2.641,2.6468,2.6491,2.6533,2.6549,2.6548,2.6619,2.6609,2.6593,2.6563,2.6624,2.6651,2.6661,2.6522,2.6521,2.6521,2.652,0,0,2.6267,2.6308,2.632,2.6339,2.6372,2.6404,2.645,2.649,2.6513,2.6542,2.6581,2.6637,2.6623,2.6646,2.6648,2.6681,2.6745,2.6662,2.6662,2.6677,2.6825,2.6837,2.6849,2.6739,2.6741,2.6743,2.6823,0,2.634,2.642,2.6424,2.6497,2.6535,2.6525,2.6565,2.6591,2.6603,2.6638,2.6651,2.669,2.6669,2.6683,2.6715,2.673,2.6774,2.6724,2.6777,2.6778,2.6769,2.6863,2.6875,2.695,2.6833,2.6835,2.6836,0,2.6437,2.6469,2.6545,2.6575,2.6591,2.6627,2.6664,2.6697,2.6727,2.6733,2.6759,2.6757,2.6805,2.6773,2.684,2.6806,2.6828,2.6839,2.6842,2.6847,2.6811,2.6872,2.6973,2.6985,2.6852,2.6851,2.685,0,2.6494,2.6557,2.6611,2.6627,2.6662,2.6688,2.6704,2.6731,2.6756,2.6789,2.6805,2.6843,2.6865,2.6895,2.6904,2.688,2.6972,2.694,2.6979,2.6979,2.6999,2.6998,2.7106,2.7012,2.7012,2.7012,2.7012,0,2.6576,2.6624,2.6637,2.6671,2.6724,2.6729,2.6782,2.6796,2.6821,2.6858,2.6853,2.6888,2.6896,2.6934,2.6941,2.6996,2.7006,2.7013,2.7014,2.7014,2.7013,2.7028,2.7024,2.7015,2.7014,2.7014,2.7013,0,2.665,2.6661,2.6719,2.6748,2.6757,2.6795,2.682,2.6853,2.6864,2.6911,2.6922,2.694,2.6984,2.6995,2.7047,2.7052,2.7118,2.7114,2.7108,2.7108,2.7146,2.7143,2.7269,2.7286,2.7181,2.7182,2.7182,0,2.6702,2.6738,2.6771,2.6795,2.6812,2.6851,2.6876,2.6882,2.6908,2.6945,2.6974,2.7017,2.7051,2.7122,2.714,2.718,2.7178,2.7219,2.7184,2.7183,2.7179,2.7177,2.7182,2.7226,2.7227,2.7228,2.7229,0,2.6793,2.6797,2.6832,2.687,2.6899,2.693,2.6959,2.6979,2.699,2.702,2.7064,2.7091,2.7144,2.7187,2.7228,2.7246,2.724,2.724,2.7251,2.7251,2.7246,2.725,2.7127,2.7237,2.7236,2.7236,2.7235,2.7235,2.6858,2.689,2.6918,2.6958,2.6981,2.7008,2.7041,2.7056,2.7093,2.7136,2.7138,2.7187,2.7217,2.7271,2.7291,2.733,2.7318,2.7334,2.7338,2.7342,2.7346,2.724,2.7337,2.7337,2.7337,2.7337,2.7337,0,2.6949,2.6967,2.7004,2.7045,2.7077,2.7067,2.7099,2.7127,2.7169,2.7198,2.7232,2.7284,2.7326,2.7347,2.7389,2.7416,2.7415,2.7427,2.7426,2.743,2.7354,2.734,2.7428,2.7428,2.7428,2.7428,2.7428,2.7428,2.7,2.7055,2.7062,2.7129,2.7146,2.7193,2.7213,2.7238,2.7261,2.7319,2.7353,2.7367,2.7393,2.7438,2.7476,2.7482,2.7498,2.7512,2.7516,2.7445,2.7435,2.7426,2.7414,2.7515,2.7515,2.7589,2.759,2.759]},{"header":{"parameterUnit":"m.s-1","parameterCategory":1,"la1":30.2991,"la2":30.254,"lo1":-89.0895,"lo2":-89.0444,"dy":0.0017,"dx":0.0017,"nx":28,"ny":28,"refTime":"2024-09-28T09:00:00:Z","depth":0,"parameterNumber":3,"parameterNumberName":"V-component_of_WINDS"},"data":[0,0,0,0,0,0,0,0,0,0,0,0,0,0,0,0,0,0,0,0,0,0,0,0,0,0,0,0,0,0,0,0,0,0,0,0,0,0,0,0,0,0,0,0,0,0,0,0,0,0,0,0,0,0,0,0,0,0,0.6302,0.6302,0,0.6287,0.6287,0.6287,0.6276,0.6276,0.6276,0.6276,0.6262,0.6261,0.6261,0,0,0,0,0,0,0,0,0,0,0,0,0,0.6321,0.632,0.6302,0.6302,0.6301,0.6287,0.6287,0.6287,0.6276,0.6276,0.6276,0.6276,0.6262,0.6261,0.6261,0,0,0,0,0,0,0,0,0,0,0,0,0,0.631,0.632,0.6302,0.6294,0.6294,0.6287,0.6287,0.6287,0.6276,0.6276,0.6276,0.6276,0.6262,0.6261,0.6261,0.6261,0,0,0.626,0.6259,0,0,0,0,0,0,0,0,0.6311,0.6309,0.6296,0.6295,0.6294,0.6283,0.6288,0.6278,0.6276,0.6283,0.6276,0.6276,0.6269,0.6268,0.6266,0.626,0.626,0.626,0.6259,0.6259,0.6259,0,0,0,0,0,0,0,0.6311,0.631,0.6296,0.6296,0.6294,0.6292,0.629,0.6286,0.6277,0.6282,0.6282,0.628,0.6269,0.6266,0.6265,0.6259,0.626,0.6259,0.6259,0.6259,0.6253,0.6253,0,0,0,0,0,0,0.6313,0.6311,0.6296,0.6296,0.6302,0.6292,0.629,0.6287,0.6277,0.6275,0.628,0.628,0.6267,0.6266,0.6265,0.6264,0.6259,0.6259,0.6258,0.6253,0.6253,0.6253,0,0,0,0,0,0,0.6314,0.6312,0.6297,0.6303,0.6301,0.6292,0.6288,0.6287,0.6284,0.6275,0.6273,0.6279,0.6267,0.6265,0.6262,0.6263,0.6258,0.6258,0.6253,0.6253,0.6253,0.6262,0,0,0,0,0,0,0.6314,0.6312,0.6312,0.6303,0.63,0.6294,0.6288,0.6287,0.6283,0.6283,0.6274,0.6272,0.6266,0.6263,0.6261,0.6262,0.6258,0.6253,0.6253,0.6253,0.6262,0.6263,0.6264,0,0,0,0,0,0.6315,0.6315,0.6312,0.6311,0.63,0.6295,0.6293,0.6286,0.6284,0.6283,0.6278,0.6273,0.6263,0.6262,0.6261,0.6262,0.6253,0.6253,0.6253,0.6261,0.6263,0.6264,0,0,0,0,0,0,0.6325,0.6314,0.631,0.6308,0.6302,0.6293,0.6292,0.6288,0.6283,0.6282,0.6274,0.6272,0.627,0.6265,0.6265,0.6261,0.6257,0.6257,0.6264,0.6265,0.6266,0.6267,0.6257,0,0,0,0,0,0.6327,0.6323,0.6314,0.6313,0.631,0.6302,0.6299,0.6294,0.6288,0.6286,0.628,0.6274,0.627,0.6267,0.6263,0.6261,0.6259,0.6261,0.6262,0.6263,0.6263,0.6262,0.6263,0.6254,0.6254,0.6254,0,0,0.6331,0.6325,0.6323,0.6315,0.631,0.6306,0.63,0.6296,0.6294,0.6285,0.6282,0.6277,0.627,0.6268,0.6266,0.6264,0.6265,0.6263,0.6264,0.6263,0.6262,0.6263,0.6264,0.6254,0.6254,0.6254,0,0,0.6337,0.6331,0.633,0.6325,0.6317,0.6312,0.6311,0.6303,0.6299,0.6295,0.6289,0.6286,0.6278,0.6274,0.6271,0.6274,0.627,0.6273,0.6278,0.6277,0.6277,0.6278,0.6279,0.628,0.6273,0.6273,0.6273,0,0.6343,0.6337,0.6329,0.6326,0.6323,0.6315,0.6313,0.6309,0.63,0.6298,0.6296,0.6286,0.6281,0.6278,0.6278,0.6276,0.6275,0.6274,0.6278,0.6278,0.6279,0.628,0.628,0.6274,0.6273,0.6273,0.6273,0,0.6345,0.6341,0.6341,0.6333,0.6329,0.6327,0.6319,0.6316,0.6311,0.6306,0.6302,0.6296,0.629,0.6288,0.6284,0.6284,0.6283,0.6279,0.6275,0.628,0.6281,0.6281,0.6274,0.6274,0.6274,0.6274,0,0,0.6357,0.6344,0.6344,0.634,0.6331,0.6328,0.6326,0.632,0.6318,0.6312,0.631,0.6304,0.63,0.6296,0.6291,0.629,0.6294,0.6287,0.6286,0.6288,0.6294,0.6297,0.6297,0.629,0.629,0.6291,0.6294,0,0.6361,0.6356,0.6349,0.6346,0.6342,0.6334,0.6332,0.6326,0.6321,0.6317,0.6312,0.6307,0.6303,0.6301,0.6299,0.6294,0.6295,0.6293,0.6288,0.6288,0.6291,0.6298,0.6301,0.6305,0.6295,0.6295,0.6295,0,0.6366,0.636,0.6357,0.6348,0.6346,0.6344,0.6338,0.6335,0.6328,0.6325,0.632,0.6315,0.6311,0.6308,0.6303,0.6302,0.63,0.6297,0.6297,0.6296,0.6292,0.6298,0.6306,0.6307,0.6295,0.6295,0.6295,0,0.6375,0.6367,0.6364,0.6361,0.635,0.6349,0.6345,0.6338,0.6335,0.633,0.6327,0.6322,0.6319,0.6315,0.6308,0.6306,0.6304,0.63,0.6301,0.6301,0.6302,0.6302,0.631,0.63,0.63,0.63,0.63,0,0.6381,0.6379,0.6368,0.6366,0.6364,0.6355,0.6354,0.6348,0.6342,0.634,0.6332,0.633,0.6321,0.6317,0.6311,0.6309,0.6307,0.6304,0.6303,0.6305,0.6306,0.6304,0.6303,0.63,0.63,0.63,0.63,0,0.6391,0.6383,0.6379,0.637,0.6367,0.6366,0.6358,0.6356,0.635,0.6347,0.6345,0.6337,0.6332,0.6325,0.6318,0.6314,0.6312,0.631,0.6315,0.6314,0.6316,0.6316,0.6323,0.6324,0.6313,0.6313,0.6313,0,0.6395,0.6394,0.6384,0.6381,0.6377,0.6373,0.637,0.6361,0.6358,0.6351,0.635,0.6344,0.634,0.6333,0.6326,0.6321,0.6318,0.6321,0.6317,0.632,0.6318,0.6319,0.6319,0.6322,0.6322,0.6322,0.6322,0,0.6404,0.64,0.6395,0.6389,0.6386,0.6381,0.6375,0.6374,0.6364,0.6361,0.6356,0.6352,0.6345,0.634,0.6334,0.633,0.6325,0.6323,0.6324,0.6326,0.6329,0.6328,0.6317,0.6323,0.6323,0.6323,0.6323,0.6323,0.6411,0.6409,0.6402,0.6397,0.6392,0.6387,0.6385,0.6379,0.6375,0.6368,0.6364,0.6359,0.6352,0.6343,0.6339,0.6336,0.6333,0.6334,0.6334,0.6334,0.6335,0.6329,0.6335,0.6334,0.6334,0.6334,0.6334,0,0.6419,0.6414,0.641,0.6403,0.6399,0.6394,0.6388,0.6385,0.6381,0.6375,0.637,0.6365,0.636,0.6352,0.6347,0.6345,0.6343,0.6344,0.6345,0.6344,0.6337,0.6338,0.6346,0.6346,0.6346,0.6346,0.6346,0.6346,0.6423,0.642,0.6416,0.641,0.6405,0.64,0.6397,0.6392,0.6388,0.6382,0.6377,0.6373,0.6366,0.636,0.6355,0.6353,0.6352,0.6354,0.6351,0.6345,0.6344,0.6343,0.6344,0.6354,0.6354,0.6358,0.6358,0.6358]}]]